Flag for Austria Weather past 2 weeks in Knittelfeld, Styria, Austria

Now
68 °F

Partly sunny.


Feels Like: 68 °F
Forecast: 47 / 68 °F
Wind: 12 mph from South

Location: Zeltweg

Current Time: Apr 25, 2015 at 6:29:13 PM

Latest Report: Apr 25, 2015 at 5:50 PM


Visibility: 25 mi

Pressure: 29.83 "Hg

Humidity: 35%

Dew point: 39 °F

Location of KnittelfeldLocation

Historic Weather in Knittelfeld — Graph

°F

Knittelfeld temperature yesterday

Maximum temperature yesterday: 63 °F (at 4:50 PM)
Minimum temperature yesterday: 36 °F (at 5:50 AM)
Average temperature yesterday: 51 °F

Past Weeks' High & Low Weather Summary

 TemperatureHumidityPressure
High73 °F (Apr 16, 1:50 PM)100% (Apr 12, 5:50 AM)30.45 "Hg (Apr 12, 5:50 AM)
Low27 °F (Apr 19, 6:50 AM)14% (Apr 16, 5:50 PM)29.83 "Hg (Apr 17, 1:20 PM)
Average54 °F54%30.14 "Hg
* Reported Apr 10 4:20 PM — Apr 25 4:50 PM, Knittelfeld, Weather by CustomWeather, © 2015

Note: Actual official high and low records may vary slightly from our data, if they occured in-between our weather recording intervals... More about our weather records

Advertising

Knittelfeld weather history for previous 24 hours

 ConditionsComfort  
Time TempWeatherWind HumidityBarometerVisibility
4:50 PM
Sat, Apr 25
70 °FScattered clouds.10 mph29%29.83 "Hg31 mi
3:50 PM70 °FScattered clouds.9 mph29%29.86 "Hg31 mi
3:20 PM70 °FScattered clouds.9 mph29%29.86 "Hg31 mi
2:50 PM70 °FScattered clouds.7 mph31%29.89 "Hg31 mi
2:20 PM70 °FScattered clouds.6 mph31%29.89 "Hg31 mi
1:50 PM70 °FScattered clouds.10 mph31%29.89 "Hg31 mi
1:20 PM68 °FPartly sunny.5 mph35%29.92 "Hg31 mi
12:50 PM66 °FPartly sunny.3 mph40%29.92 "Hg31 mi
12:20 PM64 °FScattered clouds.3 mph40%29.95 "Hg31 mi
11:50 AM63 °FPartly sunny.2 mph42%29.95 "Hg31 mi
11:20 AM61 °FPartly sunny.2 mph48%29.98 "Hg31 mi
10:50 AM55 °FPartly sunny.2 mph59%29.98 "Hg31 mi
10:20 AM54 °FPartly sunny.2 mph67%30.01 "Hg31 mi
9:50 AM52 °FPartly sunny.2 mph62%30.01 "Hg31 mi
9:20 AM48 °FPartly sunny.2 mph71%30.01 "Hg25 mi
8:50 AM46 °FPartly sunny.2 mph71%30.01 "Hg25 mi
8:20 AM45 °FPartly sunny.2 mph76%30.04 "Hg25 mi
7:50 AM41 °FPartly sunny.2 mph87%30.04 "Hg25 mi
6:50 AM36 °FPassing clouds.1 mph87%30.04 "Hg25 mi
5:50 AM34 °FPassing clouds.2 mph93%30.01 "Hg19 mi
10:50 PM
Fri, Apr 24
46 °FClear.2 mph82%30.01 "Hg6 mi
9:50 PM48 °FClear.2 mph76%30.01 "Hg25 mi
8:50 PM52 °FPassing clouds.2 mph67%30.01 "Hg25 mi
7:50 PM57 °FPassing clouds.7 mph59%29.98 "Hg25 mi
6:50 PM61 °FPartly sunny.7 mph52%29.98 "Hg25 mi
Weather by CustomWeather, © 2015

See weather overviewHow to use our weather pages